When you browse on this site, cookies collect data to enhance your experience and personalize the content and advertising you see.
Visit our Privacy Policy to learn more. By continuing to use the site, you agree to this use of cookies and data.
  • en Belgique
  • Liste des pays
  • À 7 jours
  • Température de l'eau
  • Carte satellitaire
  • Carte météo
  • Widgets météo
  • user-avatar
    Se connecter

    Météo par heure à Tuzla

    Ce jour, 17 Juin, Lundi

    Heure Température Précipitation Vent Pression Humidité
    00:00 +19°C° 0.4 mm 1 m/s 721 mmHg 95%
    01:00 +16°C° 0 mm 0 m/s 722 mmHg 93%
    02:00 +18°C° 0.5 mm 1 m/s 722 mmHg 95%
    03:00 +18°C° 0.5 mm 1 m/s 722 mmHg 96%
    04:00 +19°C° 0.5 mm 1 m/s 722 mmHg 98%
    05:00 +17°C° 0.2 mm 0 m/s 722 mmHg 97%
    06:00 +18°C° 0.2 mm 0 m/s 722 mmHg 96%
    07:00 +19°C° 0.2 mm 0 m/s 723 mmHg 96%
    08:00 +21°C° 0.2 mm 1 m/s 723 mmHg 92%
    09:00 +22°C° 0.2 mm 1 m/s 723 mmHg 88%
    10:00 +23°C° 0.2 mm 2 m/s 723 mmHg 85%
    11:00 +23°C° 0.5 mm 2 m/s 722 mmHg 86%
    12:00 +23°C° 0.5 mm 2 m/s 722 mmHg 87%
    13:00 +23°C° 0.5 mm 2 m/s 722 mmHg 87%
    14:00 +23°C° 0.1 mm 1 m/s 722 mmHg 85%
    15:00 +24°C° 0.1 mm 1 m/s 722 mmHg 83%
    16:00 +24°C° 0.1 mm 1 m/s 721 mmHg 80%
    17:00 +23°C° 0.3 mm 1 m/s 721 mmHg 84%
    18:00 +23°C° 0.3 mm 1 m/s 721 mmHg 88%
    19:00 +22°C° 0.3 mm 1 m/s 721 mmHg 92%
    20:00 +19°C° 0.4 mm 0 m/s 721 mmHg 93%
    21:00 +18°C° 0.4 mm 0 m/s 721 mmHg 94%
    22:00 +18°C° 0.4 mm 0 m/s 721 mmHg 95%
    23:00 +17°C° 0 mm 0 m/s 721 mmHg 95%

    Demain, 18 Juin, Mardi

    Heure Température Précipitation Vent Pression Humidité
    00:00 +17°C° 0 mm 0 m/s 721 mmHg 95%
    01:00 +16°C° 0 mm 0 m/s 721 mmHg 96%
    02:00 +16°C° 0 mm 0 m/s 721 mmHg 96%
    03:00 +16°C° 0 mm 0 m/s 721 mmHg 96%
    04:00 +16°C° 0 mm 0 m/s 721 mmHg 96%
    05:00 +17°C° 0.3 mm 0 m/s 721 mmHg 95%
    06:00 +18°C° 0.3 mm 0 m/s 722 mmHg 94%
    07:00 +20°C° 0.3 mm 0 m/s 722 mmHg 93%
    08:00 +22°C° 0.3 mm 1 m/s 722 mmHg 90%
    09:00 +23°C° 0.3 mm 1 m/s 722 mmHg 88%
    10:00 +23°C° 0.3 mm 1 m/s 722 mmHg 85%
    11:00 +24°C° 0.3 mm 1 m/s 722 mmHg 83%
    12:00 +24°C° 0.3 mm 1 m/s 722 mmHg 81%
    13:00 +25°C° 0.3 mm 1 m/s 722 mmHg 79%
    14:00 +24°C° 0.6 mm 1 m/s 721 mmHg 82%
    15:00 +24°C° 0.6 mm 1 m/s 721 mmHg 85%
    16:00 +23°C° 0.6 mm 1 m/s 721 mmHg 89%
    17:00 +20°C° 0.2 mm 0 m/s 721 mmHg 89%
    18:00 +20°C° 0.2 mm 0 m/s 720 mmHg 90%
    19:00 +19°C° 0.2 mm 0 m/s 720 mmHg 91%
    20:00 +18°C° 0 mm 0 m/s 720 mmHg 91%
    21:00 +20°C° 0 mm 1 m/s 720 mmHg 91%
    22:00 +19°C° 0 mm 1 m/s 720 mmHg 92%
    23:00 +18°C° 0 mm 1 m/s 720 mmHg 92%

    Après-demain, 19 Juin, Mercredi

    Heure Température Précipitation Vent Pression Humidité
    00:00 +18°C° 0 mm 1 m/s 720 mmHg 92%
    01:00 +18°C° 0 mm 1 m/s 720 mmHg 92%
    02:00 +16°C° 0 mm 1 m/s 720 mmHg 92%
    03:00 +16°C° 0 mm 1 m/s 720 mmHg 92%
    04:00 +16°C° 0 mm 1 m/s 720 mmHg 93%
    05:00 +19°C° 0 mm 1 m/s 720 mmHg 90%
    06:00 +18°C° 0 mm 0 m/s 720 mmHg 87%
    07:00 +20°C° 0 mm 0 m/s 720 mmHg 84%
    08:00 +22°C° 0 mm 0 m/s 721 mmHg 75%
    09:00 +24°C° 0 mm 0 m/s 721 mmHg 67%
    10:00 +28°C° 0 mm 1 m/s 721 mmHg 58%
    11:00 +28°C° 0.4 mm 1 m/s 721 mmHg 61%
    12:00 +28°C° 0.4 mm 1 m/s 720 mmHg 63%
    13:00 +28°C° 0.4 mm 1 m/s 720 mmHg 66%
    14:00 +27°C° 1 mm 1 m/s 720 mmHg 71%
    15:00 +27°C° 1 mm 1 m/s 719 mmHg 76%
    16:00 +26°C° 1 mm 1 m/s 719 mmHg 80%
    17:00 +25°C° 0.7 mm 1 m/s 719 mmHg 83%
    18:00 +24°C° 0.7 mm 1 m/s 719 mmHg 86%
    19:00 +22°C° 0.7 mm 1 m/s 719 mmHg 89%
    20:00 +22°C° 0 mm 1 m/s 719 mmHg 89%
    21:00 +21°C° 0 mm 1 m/s 719 mmHg 88%
    22:00 +20°C° 0 mm 1 m/s 719 mmHg 88%
    23:00 +20°C° 0 mm 1 m/s 719 mmHg 89%

    20 Juin, Jeudi

    Heure Température Précipitation Vent Pression Humidité
    00:00 +19°C° 0 mm 1 m/s 719 mmHg 90%
    01:00 +19°C° 0 mm 1 m/s 719 mmHg 90%
    02:00 +19°C° 0 mm 1 m/s 719 mmHg 90%
    03:00 +18°C° 0 mm 1 m/s 719 mmHg 91%
    04:00 +18°C° 0 mm 1 m/s 719 mmHg 91%
    05:00 +20°C° 0 mm 1 m/s 719 mmHg 87%
    06:00 +20°C° 0 mm 0 m/s 720 mmHg 83%
    07:00 +22°C° 0 mm 0 m/s 720 mmHg 79%
    08:00 +23°C° 0.1 mm 0 m/s 720 mmHg 72%
    09:00 +27°C° 0.1 mm 1 m/s 720 mmHg 65%
    10:00 +29°C° 0.1 mm 1 m/s 720 mmHg 58%
    11:00 +29°C° 0.1 mm 1 m/s 720 mmHg 59%
    12:00 +29°C° 0.1 mm 2 m/s 720 mmHg 59%
    13:00 +29°C° 0.1 mm 2 m/s 720 mmHg 59%
    14:00 +28°C° 0.7 mm 2 m/s 720 mmHg 65%
    15:00 +28°C° 0.7 mm 1 m/s 720 mmHg 70%
    16:00 +27°C° 0.7 mm 1 m/s 719 mmHg 76%
    17:00 +26°C° 0.4 mm 1 m/s 719 mmHg 80%
    18:00 +24°C° 0.4 mm 1 m/s 719 mmHg 84%
    19:00 +21°C° 0.4 mm 0 m/s 719 mmHg 88%
    20:00 +20°C° 0 mm 0 m/s 720 mmHg 89%
    21:00 +21°C° 0 mm 1 m/s 720 mmHg 89%
    22:00 +21°C° 0 mm 1 m/s 720 mmHg 90%
    23:00 +20°C° 0 mm 1 m/s 720 mmHg 90%

    21 Juin, Vendredi

    Heure Température Précipitation Vent Pression Humidité
    00:00 +20°C° 0 mm 1 m/s 720 mmHg 90%
    01:00 +19°C° 0 mm 1 m/s 720 mmHg 91%
    02:00 +19°C° 0 mm 1 m/s 720 mmHg 91%
    03:00 +19°C° 0 mm 1 m/s 720 mmHg 91%
    04:00 +19°C° 0 mm 1 m/s 720 mmHg 91%
    05:00 +20°C° 0 mm 1 m/s 720 mmHg 87%
    06:00 +20°C° 0 mm 0 m/s 721 mmHg 83%
    07:00 +22°C° 0 mm 0 m/s 721 mmHg 80%
    08:00 +24°C° 0 mm 0 m/s 721 mmHg 72%
    09:00 +26°C° 0 mm 0 m/s 721 mmHg 64%
    10:00 +28°C° 0 mm 0 m/s 722 mmHg 56%
    11:00 +30°C° 0.1 mm 1 m/s 721 mmHg 55%
    12:00 +30°C° 0.1 mm 1 m/s 721 mmHg 55%
    13:00 +30°C° 0.1 mm 1 m/s 721 mmHg 54%
    14:00 +30°C° 0.7 mm 1 m/s 721 mmHg 61%
    15:00 +29°C° 0.7 mm 1 m/s 720 mmHg 69%
    16:00 +28°C° 0.7 mm 1 m/s 720 mmHg 77%
    17:00 +27°C° 0.7 mm 1 m/s 720 mmHg 80%
    18:00 +25°C° 0.7 mm 1 m/s 720 mmHg 83%
    19:00 +22°C° 0.7 mm 0 m/s 720 mmHg 87%
    20:00 +23°C° 0 mm 1 m/s 720 mmHg 87%
    21:00 +22°C° 0 mm 1 m/s 720 mmHg 88%
    22:00 +21°C° 0 mm 1 m/s 720 mmHg 89%
    23:00 +20°C° 0 mm 1 m/s 720 mmHg 89%

    22 Juin, Samedi

    Heure Température Précipitation Vent Pression Humidité
    00:00 +20°C° 0 mm 1 m/s 720 mmHg 90%
    01:00 +20°C° 0 mm 1 m/s 719 mmHg 90%
    02:00 +19°C° 0 mm 1 m/s 719 mmHg 90%
    03:00 +19°C° 0 mm 1 m/s 719 mmHg 90%
    04:00 +19°C° 0 mm 1 m/s 719 mmHg 90%
    05:00 +21°C° 0 mm 1 m/s 720 mmHg 85%
    06:00 +22°C° 0 mm 1 m/s 720 mmHg 81%
    07:00 +24°C° 0 mm 1 m/s 721 mmHg 77%
    08:00 +26°C° 0 mm 1 m/s 721 mmHg 67%
    09:00 +29°C° 0 mm 1 m/s 721 mmHg 58%
    10:00 +31°C° 0 mm 1 m/s 721 mmHg 48%
    11:00 +32°C° 0 mm 1 m/s 721 mmHg 46%
    12:00 +32°C° 0 mm 1 m/s 721 mmHg 43%
    13:00 +33°C° 0 mm 1 m/s 720 mmHg 40%
    14:00 +32°C° 0 mm 1 m/s 720 mmHg 44%
    15:00 +32°C° 0 mm 1 m/s 720 mmHg 49%
    16:00 +31°C° 0 mm 2 m/s 719 mmHg 54%
    17:00 +29°C° 0.2 mm 1 m/s 719 mmHg 62%
    18:00 +27°C° 0.2 mm 1 m/s 719 mmHg 71%
    19:00 +25°C° 0.2 mm 1 m/s 719 mmHg 79%
    20:00 +24°C° 0.2 mm 1 m/s 720 mmHg 81%
    21:00 +23°C° 0.2 mm 1 m/s 720 mmHg 82%
    22:00 +22°C° 0.2 mm 1 m/s 720 mmHg 84%
    23:00 +21°C° 0.1 mm 1 m/s 720 mmHg 85%
    Voir plus